• In Russia
  • List of Countries
  • For 7 days
  • Water Temperature
  • Satellite Maps
  • Weather Map
  • Weather Widgets
  • user-avatar
    Login

    Hourly Weather Ali Bayramli

    Today, 23 April, Sunday

    Time Temperature Precipitation Wind Pressure Humidity
    00:00 +10°C° 0 mm 3 mps 765 mmHg 65%
    01:00 +10°C° 0 mm 3 mps 765 mmHg 67%
    02:00 +10°C° 0 mm 2 mps 765 mmHg 69%
    03:00 +9°C° 0 mm 2 mps 765 mmHg 70%
    04:00 +10°C° 0 mm 2 mps 764 mmHg 70%
    05:00 +10°C° 0 mm 2 mps 764 mmHg 70%
    06:00 +10°C° 0 mm 2 mps 764 mmHg 70%
    07:00 +13°C° 0 mm 2 mps 763 mmHg 65%
    08:00 +15°C° 0 mm 2 mps 763 mmHg 60%
    09:00 +16°C° 0 mm 2 mps 762 mmHg 55%
    10:00 +18°C° 0 mm 3 mps 761 mmHg 53%
    11:00 +19°C° 0 mm 3 mps 760 mmHg 50%
    12:00 +20°C° 0 mm 3 mps 759 mmHg 47%
    13:00 +21°C° 0 mm 4 mps 758 mmHg 47%
    14:00 +21°C° 0 mm 4 mps 757 mmHg 46%
    15:00 +22°C° 0 mm 5 mps 756 mmHg 46%
    16:00 +20°C° 0 mm 4 mps 755 mmHg 51%
    17:00 +19°C° 0 mm 4 mps 754 mmHg 56%
    18:00 +18°C° 0 mm 4 mps 753 mmHg 61%
    19:00 +16°C° 0 mm 3 mps 753 mmHg 66%
    20:00 +14°C° 0 mm 3 mps 752 mmHg 71%
    21:00 +14°C° 0 mm 2 mps 752 mmHg 76%
    22:00 +14°C° 0 mm 2 mps 751 mmHg 77%
    23:00 +14°C° 0 mm 2 mps 751 mmHg 78%

    Tomorrow, 24 April, Monday

    Time Temperature Precipitation Wind Pressure Humidity
    00:00 +14°C° 0 mm 1 mps 750 mmHg 79%
    01:00 +13°C° 0 mm 3 mps 750 mmHg 80%
    02:00 +13°C° 0 mm 4 mps 750 mmHg 80%
    03:00 +13°C° 0 mm 5 mps 750 mmHg 81%
    04:00 +13°C° 0 mm 6 mps 750 mmHg 76%
    05:00 +14°C° 0 mm 6 mps 751 mmHg 71%
    06:00 +15°C° 0 mm 7 mps 752 mmHg 66%
    07:00 +17°C° 0 mm 7 mps 752 mmHg 57%
    08:00 +19°C° 0 mm 6 mps 753 mmHg 48%
    09:00 +21°C° 0 mm 6 mps 754 mmHg 40%
    10:00 +22°C° 0 mm 6 mps 754 mmHg 38%
    11:00 +23°C° 0 mm 6 mps 755 mmHg 36%
    12:00 +24°C° 0 mm 6 mps 755 mmHg 34%
    13:00 +23°C° 0.1 mm 7 mps 755 mmHg 34%
    14:00 +23°C° 0.1 mm 8 mps 756 mmHg 35%
    15:00 +22°C° 0.1 mm 9 mps 756 mmHg 36%
    16:00 +21°C° 0 mm 9 mps 757 mmHg 38%
    17:00 +18°C° 0 mm 8 mps 758 mmHg 40%
    18:00 +17°C° 0 mm 7 mps 758 mmHg 42%
    19:00 +16°C° 0 mm 6 mps 759 mmHg 43%
    20:00 +15°C° 0 mm 5 mps 760 mmHg 45%
    21:00 +14°C° 0 mm 4 mps 761 mmHg 47%
    22:00 +13°C° 0 mm 4 mps 761 mmHg 50%
    23:00 +12°C° 0 mm 3 mps 761 mmHg 52%

    Day after tomorrow, 25 April, Tuesday

    Time Temperature Precipitation Wind Pressure Humidity
    00:00 +13°C° 0 mm 2 mps 761 mmHg 54%
    01:00 +12°C° 0 mm 2 mps 761 mmHg 55%
    02:00 +12°C° 0 mm 2 mps 762 mmHg 56%
    03:00 +12°C° 0 mm 2 mps 762 mmHg 58%
    04:00 +12°C° 0 mm 2 mps 762 mmHg 58%
    05:00 +13°C° 0 mm 1 mps 763 mmHg 57%
    06:00 +13°C° 0 mm 1 mps 763 mmHg 57%
    07:00 +15°C° 0 mm 2 mps 763 mmHg 52%
    08:00 +17°C° 0 mm 2 mps 764 mmHg 47%
    09:00 +18°C° 0 mm 2 mps 764 mmHg 41%
    10:00 +19°C° 0 mm 3 mps 764 mmHg 40%
    11:00 +20°C° 0 mm 4 mps 764 mmHg 39%
    12:00 +21°C° 0 mm 5 mps 764 mmHg 38%
    13:00 +20°C° 0 mm 6 mps 764 mmHg 42%
    14:00 +18°C° 0 mm 8 mps 765 mmHg 46%
    15:00 +17°C° 0 mm 10 mps 765 mmHg 50%
    16:00 +14°C° 0 mm 10 mps 765 mmHg 53%
    17:00 +13°C° 0 mm 10 mps 766 mmHg 55%
    18:00 +12°C° 0 mm 10 mps 767 mmHg 58%
    19:00 +11°C° 0 mm 9 mps 768 mmHg 56%
    20:00 +11°C° 0 mm 8 mps 768 mmHg 54%
    21:00 +11°C° 0 mm 8 mps 769 mmHg 52%
    22:00 +11°C° 0.1 mm 7 mps 770 mmHg 54%
    23:00 +10°C° 0.1 mm 7 mps 770 mmHg 55%

    26 April, Wednesday

    Time Temperature Precipitation Wind Pressure Humidity
    00:00 +10°C° 0.1 mm 6 mps 770 mmHg 57%
    01:00 +10°C° 0.1 mm 5 mps 770 mmHg 56%
    02:00 +10°C° 0.1 mm 5 mps 771 mmHg 56%
    03:00 +11°C° 0.1 mm 4 mps 771 mmHg 56%
    04:00 +11°C° 0 mm 4 mps 771 mmHg 57%
    05:00 +11°C° 0 mm 4 mps 772 mmHg 58%
    06:00 +11°C° 0 mm 4 mps 772 mmHg 59%
    07:00 +12°C° 0 mm 4 mps 773 mmHg 55%
    08:00 +13°C° 0 mm 4 mps 773 mmHg 51%
    09:00 +13°C° 0 mm 4 mps 773 mmHg 47%
    10:00 +14°C° 0 mm 4 mps 773 mmHg 44%
    11:00 +15°C° 0 mm 4 mps 773 mmHg 40%
    12:00 +17°C° 0 mm 4 mps 772 mmHg 37%
    13:00 +16°C° 0 mm 5 mps 772 mmHg 38%
    14:00 +17°C° 0 mm 5 mps 772 mmHg 38%
    15:00 +17°C° 0 mm 6 mps 771 mmHg 38%
    16:00 +16°C° 0 mm 5 mps 771 mmHg 42%
    17:00 +15°C° 0 mm 5 mps 771 mmHg 46%
    18:00 +14°C° 0 mm 5 mps 771 mmHg 49%
    19:00 +13°C° 0 mm 4 mps 771 mmHg 54%
    20:00 +11°C° 0 mm 3 mps 772 mmHg 59%
    21:00 +10°C° 0 mm 2 mps 772 mmHg 64%
    22:00 +10°C° 0 mm 2 mps 771 mmHg 67%
    23:00 +10°C° 0 mm 1 mps 771 mmHg 69%

    27 April, Thursday

    Time Temperature Precipitation Wind Pressure Humidity
    00:00 +10°C° 0 mm 1 mps 771 mmHg 72%
    01:00 +9°C° 0 mm 1 mps 771 mmHg 73%
    02:00 +9°C° 0 mm 1 mps 770 mmHg 74%
    03:00 +9°C° 0 mm 1 mps 770 mmHg 74%
    04:00 +9°C° 0 mm 1 mps 770 mmHg 71%
    05:00 +10°C° 0 mm 1 mps 771 mmHg 68%
    06:00 +11°C° 0 mm 1 mps 771 mmHg 65%
    07:00 +13°C° 0 mm 1 mps 771 mmHg 57%
    08:00 +14°C° 0 mm 1 mps 770 mmHg 48%
    09:00 +15°C° 0 mm 0 mps 770 mmHg 40%
    10:00 +18°C° 0 mm 1 mps 770 mmHg 37%
    11:00 +18°C° 0 mm 2 mps 769 mmHg 35%
    12:00 +19°C° 0 mm 2 mps 769 mmHg 32%
    13:00 +19°C° 0 mm 3 mps 768 mmHg 33%
    14:00 +20°C° 0 mm 4 mps 768 mmHg 33%
    15:00 +20°C° 0 mm 4 mps 768 mmHg 34%
    16:00 +19°C° 0 mm 4 mps 768 mmHg 37%
    17:00 +18°C° 0 mm 4 mps 768 mmHg 40%
    18:00 +17°C° 0 mm 4 mps 768 mmHg 43%
    19:00 +16°C° 0 mm 3 mps 768 mmHg 48%
    20:00 +14°C° 0 mm 2 mps 769 mmHg 54%
    21:00 +13°C° 0 mm 2 mps 769 mmHg 59%
    22:00 +12°C° 0 mm 1 mps 769 mmHg 62%
    23:00 +12°C° 0 mm 1 mps 768 mmHg 65%

    28 April, Friday

    Time Temperature Precipitation Wind Pressure Humidity
    00:00 +11°C° 0 mm 1 mps 768 mmHg 67%
    01:00 +11°C° 0 mm 1 mps 768 mmHg 68%
    02:00 +10°C° 0 mm 0 mps 768 mmHg 68%
    03:00 +10°C° 0 mm 0 mps 767 mmHg 69%
    04:00 +12°C° 0 mm 1 mps 767 mmHg 66%
    05:00 +13°C° 0 mm 1 mps 768 mmHg 64%
    06:00 +14°C° 0 mm 1 mps 768 mmHg 61%
    07:00 +15°C° 0 mm 1 mps 768 mmHg 56%
    08:00 +18°C° 0 mm 1 mps 767 mmHg 50%
    09:00 +19°C° 0 mm 1 mps 767 mmHg 45%
    10:00 +19°C° 0 mm 2 mps 767 mmHg 43%
    11:00 +20°C° 0 mm 3 mps 766 mmHg 42%
    12:00 +22°C° 0 mm 3 mps 766 mmHg 40%
    13:00 +22°C° 0 mm 4 mps 766 mmHg 39%
    14:00 +22°C° 0 mm 4 mps 765 mmHg 37%
    15:00 +22°C° 0 mm 5 mps 765 mmHg 36%
    16:00 +21°C° 0 mm 4 mps 765 mmHg 38%
    17:00 +20°C° 0 mm 4 mps 765 mmHg 40%
    18:00 +19°C° 0 mm 3 mps 765 mmHg 42%
    19:00 +18°C° 0 mm 3 mps 765 mmHg 45%
    20:00 +16°C° 0 mm 2 mps 765 mmHg 48%
    21:00 +15°C° 0 mm 2 mps 765 mmHg 50%
    22:00 +15°C° 0 mm 1 mps 764 mmHg 52%
    23:00 +14°C° 0 mm 1 mps 764 mmHg 53%
    Show more